Regional Weather Roundup
Issued by NWS Wakefield, VA

Home | Current Version | Previous Version | Text Only | Print | Product List | Glossary On
Versions: 1 2 3 4 5 6 7 8 9 10 11 12 13 14 15 16 17 18 19 20 21 22 23 24 25 26 27
000
ASUS41 KAKQ 231315
RWRAKQ

REGIONAL WEATHER ROUNDUP
NATIONAL WEATHER SERVICE WAKEFIELD VA
900 AM EDT THU MAR 23 2017

Note: "fair" indicates few or no clouds below 12,000 feet with no
significant weather and/or obstructions to visibility. * = Denotes
station may not report precipitation (e.g., rain,snow,etc.),
thunder or fog.

VAZ042-051-052>054-056-231400-
NORTHERN VIRGINIA

CITY           SKY/WX    TMP DP  RH WIND       PRES   REMARKS
WASH NATIONAL  MOSUNNY   32   5  32 NE8       30.66R
DULLES         SUNNY     31   5  33 E7        30.64R
FORT BELVOIR   SUNNY     32   5  32 VRB5      30.66R
QUANTICO       MOSUNNY   33  11  39 E8        30.68R
FREDERICKSBRG* SUNNY     33  12  41 NE6       30.65R
STAFFORD*      SUNNY     32   9  38 NE8       30.69R
WARRENTON      SUNNY     32   7  34 NE5       30.64R
CULPEPER*      SUNNY     33  12  42 NE3       30.65R
MANASSAS*      SUNNY     30  17  58 SE3       30.65R
LEESBURG*      SUNNY     32  10  40 CALM      30.65S
WINCHESTER     SUNNY     28   9  43 E3        30.61R
FRONT ROYAL*   SUNNY     30  10  43 CALM      30.61R
LURAY*         SUNNY     30  16  55 NE5       30.60R
$$

VAZ048-049-060>072-079>083-231400-
CENTRAL AND SOUTH CENTRAL VIRGINIA

CITY           SKY/WX    TMP DP  RH WIND       PRES   REMARKS
RICHMOND       SUNNY     34  13  41 E10       30.63R
CHESTERFIELD*  FAIR      36   3  25 E9        30.64R
PETERSBURG*    SUNNY     34  13  41 E12       30.64R WCI  25
HANOVER        SUNNY     33  12  41 E8        30.65R
TAPPAHANNOCK*  SUNNY     33  -7  17 NE7       30.65R
QUINTON*       FAIR      33  12  42 NE8       30.64R
CHARLOTTSVILLE SUNNY     34   8  33 NE9       30.61R
GORDONSVILLE*  SUNNY     32  11  41 NE5       30.62S
ORANGE*        SUNNY     32   9  37 NE7       30.64R
LOUISA*        SUNNY     36  16  44 NE5       30.61R
BUMPASS*       FAIR      32  13  45 E5        30.62S
FARMVILLE*     SUNNY     34  14  44 NE3       30.61R
CREWE*         FAIR      33  15  47 E6        30.61S
FORT PICKETT*  FAIR      34  11  39 E10       30.62R
CHASE CITY*    FAIR      35  11  38 E6        30.61R
CLARKSVILLE*   FAIR      36  18  48 E6        30.61R
SOUTH HILL*    SUNNY     33  19  57 E3        30.68R
LAWRENCEVILLE* FAIR      34  17  50 NE6       30.62R
EMPORIA*       SUNNY     34  21  60 NE5       30.65R
$$

VAZ088>098-231400-
SOUTHEAST VIRGINIA

CITY           SKY/WX    TMP DP  RH WIND       PRES   REMARKS
NORFOLK        SUNNY     36   9  32 NE18      30.64R
VIRGINIA BEACH SUNNY     37  17  44 N13       30.63R
NORFOLK NAVAL  SUNNY     37  13  37 NE15      30.66R
WEST POINT*    SUNNY     34  11  39 NE9       30.67R
SALUDA*        FAIR      32   9  38 N10       30.65R WCI  24
NEWPORT NEWS   SUNNY     36  16  44 NE9G21    30.64R
LANGLEY AFB    SUNNY     36  17  45 NE15      30.64R
FORT EUSTIS    SUNNY     38  12  34 E8        30.62R
WILLIAMSBURG*  SUNNY     36  19  51 CALM      30.65R
HR EXEC AP*    FAIR      37  14  38 NE10      30.63R
FRANKLIN*      SUNNY     35  21  57 NE10      30.65R
US460-WAKEFLD  SUNNY     35  18  49 VRB5      30.64R
$$

VAZ020-022-025-037-045-231400-
WEST CENTRAL AND SOUTHWEST VIRGINIA

CITY           SKY/WX    TMP DP  RH WIND       PRES   REMARKS
STAUNTON*      SUNNY     26  15  62 CALM      30.60R
WAYNESBORO*    SUNNY     30   8  39 SE6       30.56R
HOT SPRINGS VA SUNNY     28   5  37 CALM      30.42S
LYNCHBURG      SUNNY     34   8  33 NE7       30.61R
DANVILLE       SUNNY     36  11  35 E8        30.60R
SOUTH BOSTON*  FAIR      36  12  36 E6        30.61R
MARTINSVILLE   SUNNY     34  14  44 NE3       30.62R
ROANOKE        SUNNY     34  13  41 S5        30.60R
BLACKSBURG     SUNNY     32  13  44 E7        30.55R
DUBLIN*        SUNNY     32  22  68 CALM      30.53R
MARION*        SUNNY     34  16  48 NE10      30.49R
HILLSVILLE*    SUNNY     32  12  42 S8        30.48R
RICHLANDS*     FAIR      38  14  36 SE3       30.38S
WISE*          SUNNY     39  14  35 S7        30.39R
ABINGDON*      SUNNY     39  15  37 E15       30.42S
$$

MDZ021>025-VAZ099-100-231400-
SOUTHERN MARYLAND AND THE DELMARVA PENINSULA

CITY           SKY/WX    TMP DP  RH WIND       PRES   REMARKS
PATUXENT RIVER MOSUNNY   32   9  38 NE13      30.65R WCI  22
BAY BRIDGE APT SUNNY     32   9  37 N6        30.66R
LEONARDTOWN    SUNNY     32  12  43 E5        30.66R
DOVER          SUNNY     29  10  46 N10       30.63R WCI  19
GEORGETOWN     SUNNY     30  10  43 NE9G20    30.65R
EASTON         SUNNY     30   5  34 NE7       30.69R
CAMBRIDGE      SUNNY     30   5  34 NE8       30.66R
SALISBURY      SUNNY     29  10  45 N13G18    30.65R WCI  19
OCEAN CITY     SUNNY     32  11  41 N9G21     30.64R
WALLOPS ISLAND MOSUNNY   30  10  43 N12       30.65R WCI  20
ACCOMACK*      SUNNY     31  10  40 NE10G18   30.64R WCI  23
$$

NCZ012>017-030>032-231400-
NORTH CENTRAL AND EASTERN NORTH CAROLINA

CITY           SKY/WX    TMP DP  RH WIND       PRES   REMARKS
ROANOKE RAPIDS FAIR      36  21  55 E7        30.61R
RALEIGH        SUNNY     39  12  33 NE14      30.58R
ELIZABETH CITY SUNNY     39  24  55 N10       30.61R
AHOSKIE*       NOT AVBL
EDENTON*       SUNNY     39  26  59 N5        30.62R
CURRITUCK*     SUNNY     39  18  43 N14       30.62R
KILL DEVIL HLS NOT AVBL
MANTEO         SUNNY     39  22  50 NE14G22   30.60R
CAPE HATTERAS  SUNNY     43  24  47 NE14G26   30.56R
TARBORO*       NOT AVBL
GOLDSBORO      SUNNY     39  27  61 NE12      30.56R
WASHINGTON     SUNNY     38  27  64 NE7       30.58R
GREENVILLE     SUNNY     37  27  65 NE9       30.58R
NEW BERN       SUNNY     41  29  62 E8        30.58R
WILMINGTON     SUNNY     43  30  60 NE14      30.53R
$$

VAZ048-231400-
ELSEWHERE

CITY           SKY/WX    TMP DP  RH WIND       PRES   REMARKS
HARRISBURG PA  SUNNY     29   9  43 VRB6      30.63R
BALTIMORE      MOSUNNY   31   5  33 N8        30.64R
ANNAPOLIS      MOSUNNY   33  10  38 N12       30.65R WCI  24
ANDREWS AFB    SUNNY     30   5  34 VRB6      30.63R
PHILADELPHIA   MOSUNNY   28   6  39 N15G21    30.64R WCI  16
HENDERSON NC   SUNNY     32  16  51 NE6       30.60R
GREENSBORO     SUNNY     38  11  32 E9        30.56R
ROCKY MOUNT    SUNNY     37  23  56 NE9       30.60R
$$

VAZ100-231400-
MARINE

STATION/POSITION TIME  TEMP    WIND        PRES    WAVE   SWELL
                       AIR SEA DIR/SP/G            HT/PER HT/PER
                 (UTC) (F)     (DEG/KT/KT) (MB)    (FT/S) (FT/S)
CAPE MAY NJ      1248   28 41  360/  7/ 11 1037.2R
LEWES DE         1248   29 40   10/ 16/ 18 1037.7R
OCEAN-CITY-INLET 1248   30 42   30/ 12/ 17 1037.7R
WACHAPREAGUE VA  1248   30 43   20/ 10/ 13 1037.5R
THOMAS POINT MD  1200   31 43   20/ 15/ 17   N/A
GOOSES REEF MD   1250   31      80/ 12/ 16 1038.4R
COVE POINT MD    1248   30      40/ 13/ 16 1038.6R
SOLOMONS ISLAND  1242   31 44   40/ 10/ 12   N/A
BISHOPS HEAD MD  1248   30 40   30/ 16/ 20 1038.2R
PINEY POINT MD   1248           70/  6/  9   N/A
POTOMAC MD       1250   31      40/ 12/ 16 1037.2R
CAMBRIDGE MD     1248   29 43   30/ 10/ 12 1037.5R
LEWISETTA VA     1248   32 47   60/  9/ 15 1037.9R
RAPPAHANNOCK LGT 1248           10/ 21/ 24 1038.2R
STINGRAY PT      1250   33      50/ 14/ 19 1037.9R
YORK RVR RNG VA  1248   34      40/ 18/ 21 1036.9R
YORKTOWN VA      1248   35 48   50/ 12/ 16 1037.4R
JAMESTOWN VA     1250   35      50/  6/ 12   N/A
DOMINION TERM VA 1248   36      50/  4/ 10 1037.7R
KIPTOPEKE VA     1248      46   30/  9/ 13   N/A
CHES BAY BRIDGE  1248   34 47   30/ 18/ 20 1037.4R
CAPE HENRY VA    1248   34      20/ 16/ 18   N/A
WILLOUBY STN VA  1248   34      50/ 14/ 16 1038.5R
S CRANEY ISL VA  1248   36      40/ 15/ 19 1037.2R
CAPE HENRY BUOY  1242      45                N/A     6/ 6
CAPE CHARLES BUO 1251      45                N/A     4/ 8
OFFSHORE WE BUOY 1251      45                N/A     7/ 8   2/11
64NM E OF VA BCH 1250   38 50   20/ 17/ 21 1035.6R   7/ 8
DUCK PIER NC     1248   38 47   20/ 19/ 23 1035.6R
44100 DUCK FRF   1235      47                N/A     7/ 8   2/11
44056 DUCK FRF   1230      47                N/A     6/ 7   2/11
OREGON INLET NC  1242   39 49   10/ 15/ 22 1035.3R
HATTERAS NC      1248   41 52   30/ 16/ 22 1034.2R
DIAMOND SHLS NC  1250   46 75   30/ 19/ 27 1034.0R  11/11   7/11
CAPE LOOKOUT NC  1200   44      30/ 19/ 26 1033.1R
$$




USA.gov is the U.S. government's official web portal to all federal, state and local government web resources and services.